Weather History for Las Vegas, NV

Change the Weather History Date:

Wednesday, October 6, 2010

  Actual Average Record
Temperature  
Mean Temperature 69 °F 74 °F  
Max Temperature 78 °F 85 °F 98 °F (1978)
Min Temperature 59 °F 62 °F 43 °F (1969)
Degree Days  
Heating Degree Days 0 0  
Month to date heating degree days 0 0  
Since 1 July heating degree days 0 1  
Cooling Degree Days 4 9  
Month to date cooling degree days 69 60  
Year to date cooling degree days 3487 3437  
Growing Degree Days 18 (Base 50)    
Moisture  
Dew Point 29 °F    
Average Humidity 37    
Maximum Humidity 55    
Minimum Humidity 19    
Precipitation  
Precipitation 0.00 in 0.01 in 0.13 in (2006)
Month to date precipitation 0.03 0.04  
Year to date precipitation 3.33 3.10  
Snow  
Snow 0.00 in 0.00 in 0.00 in ()
Month to date snowfall 0.0 0.0  
Since 1 July snowfall 0.0 0.0  
Since 1 September snowfall 0.0 0.0  
Snow Depth 0.00 in    
Sea Level Pressure  
Sea Level Pressure 29.92 in    
Wind  
Wind Speed 11 mph (SSW)    
Max Wind Speed 20 mph    
Max Gust Speed 25 mph    
Visibility 10 miles    
Events      
T = Trace of Precipitation, MM = Missing Value Source: NWS Daily Summary

Daily Weather History Graph

Daily Weather History Graph

Search for Another Location

Airport:

Trip Planner

Search our weather history database for the weather conditions in past years. The results will help you decide how hot, cold, wet, or windy it might be!

Date:

Astronomy

Oct. 06, 2010 Rise Set
Actual Time 6:39 AM PDT 6:17 PM PDT
Civil Twilight 6:14 AM PDT 6:42 PM PDT
Nautical Twilight 5:44 AM PDT 7:12 PM PDT
Astronomical Twilight 5:14 AM PDT 7:42 PM PDT
Moon 5:22 AM PDT (10/6) 5:22 PM PDT (10/6)
Length of Visible Light 12h 28m
Length of Day
11h 37m
Waning Crescent, 1% of the Moon is Illuminated
Oct 6
Waning Crescent
Oct 7
New
Oct 14
First Quarter
Oct 22
Full
Oct 30
Last Quarter

Hourly Weather History & Observations

Time (PDT) Temp. Dew Point Humidity Pressure Visibility Wind Dir Wind Speed Gust Speed Precip Events Conditions
12:56 AM 64.9 °F 28.9 °F 26% 29.91 in 10.0 mi SSW 8.1 mph - N/A   Scattered Clouds
1:56 AM 62.1 °F 27.0 °F 26% 29.92 in 10.0 mi SSW 3.5 mph - N/A   Partly Cloudy
2:56 AM 63.0 °F 28.0 °F 27% 29.92 in 10.0 mi SW 3.5 mph - N/A   Mostly Cloudy
3:56 AM 63.0 °F 27.0 °F 26% 29.91 in 10.0 mi SSW 8.1 mph - N/A   Mostly Cloudy
4:56 AM 63.0 °F 27.0 °F 26% 29.92 in 10.0 mi South 6.9 mph - N/A   Mostly Cloudy
5:56 AM 60.1 °F 28.0 °F 30% 29.95 in 10.0 mi SSW 9.2 mph - N/A   Scattered Clouds
6:56 AM 60.1 °F 30.0 °F 32% 29.96 in 10.0 mi SSW 8.1 mph - N/A   Mostly Cloudy
7:56 AM 62.1 °F 28.0 °F 28% 29.97 in 10.0 mi SW 5.8 mph - N/A   Mostly Cloudy
8:56 AM 66.0 °F 28.0 °F 24% 29.97 in 10.0 mi WSW 3.5 mph - N/A   Mostly Cloudy
9:56 AM 69.1 °F 27.0 °F 21% 29.97 in 10.0 mi Calm Calm - N/A   Scattered Clouds
10:56 AM 71.1 °F 28.0 °F 20% 29.96 in 10.0 mi SE 5.8 mph - N/A   Scattered Clouds
11:56 AM 72.0 °F 28.9 °F 20% 29.96 in 10.0 mi South 8.1 mph - N/A   Scattered Clouds
12:56 PM 75.0 °F 28.9 °F 18% 29.93 in 10.0 mi South 13.8 mph 21.9 mph N/A   Scattered Clouds
1:56 PM 75.0 °F 28.0 °F 18% 29.91 in 10.0 mi Variable 4.6 mph - N/A   Mostly Cloudy
2:56 PM 73.9 °F 30.0 °F 20% 29.89 in 10.0 mi South 9.2 mph - N/A   Mostly Cloudy
3:56 PM 75.0 °F 30.0 °F 19% 29.88 in 10.0 mi South 9.2 mph 18.4 mph N/A   Mostly Cloudy
4:56 PM 73.9 °F 27.0 °F 18% 29.87 in 10.0 mi South 17.3 mph 23.0 mph N/A   Scattered Clouds
5:56 PM 73.0 °F 27.0 °F 18% 29.88 in 10.0 mi South 16.1 mph 21.9 mph N/A   Scattered Clouds
6:56 PM 72.0 °F 28.9 °F 20% 29.89 in 10.0 mi South 15.0 mph - N/A   Scattered Clouds
7:56 PM 70.0 °F 33.1 °F 26% 29.91 in 10.0 mi South 12.7 mph - N/A   Scattered Clouds
8:56 PM 69.1 °F 30.0 °F 23% 29.92 in 10.0 mi South 12.7 mph - N/A   Scattered Clouds
9:56 PM 66.9 °F 30.9 °F 26% 29.92 in 10.0 mi SSW 6.9 mph - N/A   Scattered Clouds
10:56 PM 64.9 °F 30.9 °F 28% 29.93 in 10.0 mi South 9.2 mph - N/A   Scattered Clouds
11:56 PM 64.0 °F 30.0 °F 28% 29.93 in 10.0 mi SSW 10.4 mph - N/A   Partly Cloudy